Wind_Speed
13 13 13 12 12 12 11 11 10 10 10 9 8 7 7 6 5 5 5 3 3 2 1 1 1 1 1 2 2 2 2 3 3 4 4 5 5 5 5 5 5 6 7
12 12 12 12 12 12 12 11 10 10 9 9 9 8 7 7 6 6 5 4 3 3 2 1 1 2 2 2 2 2 3 4 4 4 4 4 5 5 5 6 7 7 8
11 11 11 11 11 11 11 11 10 10 9 9 8 8 7 7 6 6 5 5 4 4 3 3 3 3 2 3 2 3 3 3 4 4 5 5 5 6 6 7 8 8 9
10 10 10 10 10 10 10 10 10 9 9 8 7 7 7 6 6 6 6 6 6 5 5 4 4 3 3 3 3 3 4 4 5 5 5 5 5 6 7 8 8 9 10
10 9 9 9 9 9 9 9 9 9 8 8 7 6 6 6 5 5 5 5 5 5 5 5 5 5 5 4 4 4 5 5 6 7 7 7 7 7 8 8 9 9 9
9 9 8 8 8 8 8 8 8 8 8 7 7 6 5 5 4 5 4 4 4 4 4 4 5 5 6 5 5 5 6 6 7 7 7 7 8 8 8 9 9 10 11
9 9 8 8 8 8 8 8 7 7 7 7 6 6 5 4 4 4 4 4 4 4 4 5 5 6 6 6 6 7 7 7 7 7 8 8 8 9 9 10 11 11 12
10 9 8 8 8 8 7 7 7 7 7 6 6 5 5 4 4 4 4 4 4 4 4 5 5 7 7 7 7 8 8 8 8 8 8 9 9 10 11 12 12 12 13
11 11 10 8 8 8 8 7 7 7 6 6 6 6 4 4 5 5 4 4 4 5 5 6 6 8 8 9 9 9 9 9 9 10 10 10 11 12 13 13 14 14 14
13 12 11 10 9 9 9 8 8 8 7 7 7 6 6 5 5 6 5 5 5 5 6 7 8 9 9 10 10 10 11 11 11 11 11 12 12 13 14 15 16 16 16
15 13 12 11 11 11 10 10 8 8 8 8 8 8 8 8 7 7 7 7 7 8 8 9 9 10 11 11 12 12 12 12 13 13 13 13 14 15 16 16 17 17 17
15 14 13 13 13 12 11 11 10 9 10 10 10 10 10 9 9 8 8 9 9 10 10 10 11 12 12 13 13 13 13 13 13 13 14 14 15 16 17 17 18 19 19
16 15 14 14 14 14 13 12 11 11 12 11 11 11 11 10 10 10 10 10 11 11 12 13 14 14 14 15 15 15 15 14 15 15 16 16 17 18 18 18 19 20 20
17 17 17 15 15 15 15 14 13 13 13 13 13 13 13 13 12 13 13 13 13 14 14 15 16 16 16 17 17 17 16 17 17 17 18 18 19 20 20 20 21 21 22
18 19 18 17 17 17 17 17 15 15 15 15 15 15 15 15 15 15 15 15 15 16 16 17 18 18 18 19 18 18 18 18 18 18 19 20 21 22 22 22 23 23 23
19 20 19 19 19 19 19 19 18 18 17 18 18 18 18 18 18 18 18 18 18 18 18 18 19 20 20 21 20 20 20 19 19 20 21 22 23 23 23 23 24 25 25
22 23 22 21 20 20 20 20 20 20 20 20 20 21 21 21 21 21 21 21 21 21 21 21 22 22 22 23 23 23 23 22 22 22 22 23 24 24 24 24 25 26 26
23 22 21 22 22 22 21 21 22 22 22 22 22 23 24 24 23 24 24 23 24 24 23 24 24 24 25 25 26 26 26 24 24 24 24 24 25 26 26 26 27 28 29
24 23 23 24 25 25 24 24 25 25 25 25 25 25 26 26 26 26 26 26 27 27 27 26 26 26 26 26 27 27 27 27 26 27 28 27 28 28 29 29 29 30 30
25 25 25 25 26 27 27 27 27 27 28 28 27 27 28 28 28 28 29 29 29 29 29 29 29 28 28 28 29 29 30 29 29 30 30 30 30 31 31 31 31 31 31
27 27 27 27 28 28 29 29 29 29 30 30 30 30 31 30 30 30 31 31 32 32 32 32 31 32 31 31 31 32 31 31 31 32 32 32 32 32 32 32 32 32 32
29 29 29 29 30 31 31 32 32 32 33 32 33 33 33 32 32 32 32 33 34 34 34 34 34 34 33 33 34 34 34 34 34 34 34 34 33 33 33 33 33 33 34
30 31 32 32 32 32 32 33 33 34 34 33 33 34 34 34 34 34 34 34 35 35 36 36 36 36 36 35 35 36 36 37 37 37 36 35 35 34 35 35 35 35 35
31 32 32 33 34 34 33 33 34 34 34 34 34 35 35 35 35 36 36 36 36 36 37 37 37 36 36 37 38 39 39 39 38 38 38 36 36 37 37 36 37 37 36
33 33 33 34 35 35 35 35 36 36 35 35 35 35 35 36 36 37 37 37 37 37 37 38 38 38 38 38 39 39 39 39 39 38 38 38 38 38 38 38 38 37 37
34 34 35 36 36 36 37 37 37 37 37 36 36 36 37 37 37 38 38 38 37 38 38 39 40 39 39 38 38 38 39 39 39 39 38 39 39 38 38 39 38 38 37
Wind_Direction
29 30 32 36 37 37 37 36 42 49 51 53 57 65 71 73 80 84 85 82 77 77 92 87 63 40 15 344 312 299 288 282 283 286 288 286 281 275 275 276 286 291 296
24 25 28 32 34 35 36 35 37 40 45 50 52 58 67 69 72 76 73 73 66 58 64 72 56 27 356 348 332 302 292 284 284 284 288 289 285 281 283 276 283 292 293
19 22 27 30 30 30 33 35 37 39 42 47 50 57 67 70 70 71 70 68 69 70 68 74 51 25 7 354 349 344 332 313 307 301 298 292 286 292 291 286 287 290 291
13 17 21 24 27 26 29 31 35 39 42 44 47 52 59 63 66 68 69 67 65 64 64 64 52 40 27 10 355 346 337 331 327 318 312 306 297 298 297 292 289 293 296
3 9 13 16 19 21 21 23 25 31 36 37 39 48 57 61 65 67 65 61 58 57 55 53 47 42 28 10 354 344 338 338 334 327 323 315 308 303 300 297 297 299 301
350 357 1 3 6 11 14 13 13 20 26 28 28 35 47 57 61 62 57 53 47 45 42 34 30 25 16 12 360 345 343 337 331 327 322 316 312 312 307 305 306 306 306
332 344 350 350 352 357 3 5 4 7 13 17 21 23 24 35 40 42 41 37 29 24 21 19 16 10 1 356 351 344 335 329 326 326 324 322 320 317 315 313 309 306 305
319 329 333 332 337 340 345 350 351 353 357 2 7 3 8 17 11 11 12 6 4 358 354 352 354 350 346 344 341 341 336 331 329 329 326 323 318 314 313 311 311 309 308
304 309 317 320 321 327 330 331 332 335 340 344 351 348 351 2 355 350 341 333 329 334 334 334 334 336 336 333 330 329 329 328 325 320 317 316 314 312 311 311 310 308 307
294 299 304 306 308 313 317 318 317 319 324 329 330 332 333 338 338 331 323 319 318 320 323 323 323 324 325 327 324 322 320 318 319 315 312 314 313 310 310 309 308 306 306
286 291 296 297 297 303 306 306 303 304 308 312 314 314 315 318 316 316 314 313 314 315 316 318 321 321 320 321 321 320 318 313 313 312 310 309 308 308 308 307 306 306 305
280 282 285 289 289 291 292 295 293 294 297 299 301 304 303 303 307 307 305 303 303 301 303 307 311 313 313 313 312 312 312 309 309 308 308 307 307 307 307 305 304 304 303
274 276 278 280 282 285 285 289 287 292 291 291 294 296 299 300 301 301 300 301 297 296 298 299 303 305 305 307 309 306 307 305 307 307 308 307 306 304 305 305 304 302 302
269 271 276 276 278 281 283 287 289 288 288 288 292 294 292 293 293 294 294 296 295 293 293 295 298 299 300 301 302 303 303 303 302 302 305 305 305 304 303 303 302 301 300
267 269 272 276 276 276 279 280 283 286 285 282 287 288 287 287 286 288 289 289 290 290 290 293 295 296 297 296 295 295 297 300 299 302 303 303 304 304 302 301 301 301 301
267 267 268 270 273 273 277 278 280 283 285 284 283 282 282 282 283 284 285 285 287 290 291 292 294 294 295 292 294 291 293 296 298 300 302 303 305 305 303 302 302 301 301
267 267 264 267 270 272 274 275 277 280 282 282 282 282 281 282 281 281 283 285 287 289 290 291 292 292 291 291 293 292 290 292 294 298 301 302 303 304 304 303 303 303 302
267 270 270 269 269 270 273 275 277 279 279 278 280 282 282 282 283 284 284 284 288 288 288 289 292 293 293 293 291 291 289 289 291 294 297 299 300 301 302 304 304 303 302
265 267 269 270 271 272 274 275 277 278 278 277 278 281 282 283 283 284 283 282 284 286 285 287 289 290 290 292 293 292 290 289 290 293 294 296 298 299 300 301 303 303 302
264 267 269 271 271 272 273 275 277 279 279 277 278 279 280 281 281 282 282 282 283 284 284 285 286 286 287 287 289 291 291 289 290 292 293 296 297 296 297 299 301 303 302
264 267 268 270 272 273 275 276 278 279 279 278 278 279 280 281 281 281 281 281 281 282 282 283 285 285 285 285 287 289 288 287 288 291 292 294 295 296 297 298 300 301 301
265 268 269 271 273 274 275 276 278 278 278 278 278 279 279 280 280 281 281 281 281 281 282 283 283 283 283 283 283 284 286 287 287 289 291 291 292 295 296 297 298 299 299
265 267 268 270 272 274 276 277 278 278 277 277 277 278 278 279 279 280 280 280 281 282 282 282 283 282 281 281 282 282 283 284 285 288 290 290 290 292 294 295 295 297 297
268 270 271 272 273 275 276 278 279 279 279 279 279 279 278 278 279 279 279 279 281 282 282 282 283 283 282 282 281 281 281 282 284 285 286 287 288 290 291 292 293 295 296
269 271 272 273 273 274 275 277 278 278 279 280 280 280 280 279 278 279 279 279 279 280 281 281 281 282 282 280 279 280 281 281 281 283 284 286 287 288 288 291 292 292 293
271 272 273 274 274 275 276 277 278 277 278 279 280 281 281 281 280 280 280 279 278 279 280 281 281 281 281 281 282 281 280 279 280 281 283 285 286 287 289 289 290 290 292
Height
5899 5898 5896 5895 5894 5892 5891 5890 5889 5888 5887 5886 5886 5885 5885 5886 5886 5886 5886 5886 5887 5887 5888 5888 5888 5889 5889 5889 5889 5890 5890 5890 5891 5891 5891 5891 5891 5891 5891 5891 5891 5892 5892
5901 5900 5898 5897 5896 5895 5893 5892 5891 5890 5889 5888 5888 5887 5887 5887 5887 5887 5887 5887 5888 5888 5888 5888 5889 5889 5889 5889 5889 5890 5890 5890 5890 5890 5890 5890 5891 5890 5890 5890 5890 5890 5890
5903 5901 5900 5899 5897 5896 5895 5894 5893 5892 5891 5890 5890 5889 5889 5889 5889 5889 5889 5889 5889 5889 5889 5889 5890 5890 5890 5890 5890 5890 5890 5890 5890 5890 5890 5889 5889 5889 5889 5889 5888 5889 5889
5904 5902 5901 5900 5899 5898 5897 5896 5895 5894 5893 5892 5891 5891 5891 5890 5890 5890 5890 5890 5890 5890 5890 5890 5890 5890 5890 5890 5890 5890 5889 5889 5889 5888 5888 5888 5888 5888 5888 5887 5887 5887 5886
5904 5903 5902 5901 5900 5899 5898 5897 5896 5895 5894 5894 5893 5892 5892 5892 5891 5891 5891 5891 5891 5891 5891 5891 5891 5891 5890 5890 5889 5889 5889 5888 5888 5887 5887 5886 5886 5886 5886 5886 5885 5884 5884
5905 5904 5903 5902 5901 5900 5899 5898 5897 5896 5896 5895 5894 5893 5893 5892 5892 5892 5892 5892 5892 5892 5892 5892 5892 5891 5891 5890 5889 5889 5888 5888 5887 5886 5886 5885 5885 5885 5884 5883 5883 5882 5882
5905 5904 5903 5902 5901 5901 5900 5899 5898 5897 5896 5895 5895 5894 5893 5893 5893 5893 5893 5893 5893 5893 5893 5892 5892 5891 5891 5890 5889 5889 5888 5887 5886 5885 5884 5884 5883 5883 5882 5882 5881 5880 5879
5904 5903 5903 5902 5901 5900 5900 5899 5898 5897 5897 5896 5895 5894 5894 5893 5893 5893 5893 5893 5893 5893 5892 5892 5892 5891 5891 5890 5889 5888 5887 5886 5885 5884 5883 5883 5882 5881 5881 5880 5879 5878 5877
5903 5902 5901 5901 5900 5900 5899 5899 5898 5897 5897 5896 5895 5894 5894 5894 5893 5893 5893 5893 5893 5892 5892 5892 5891 5891 5890 5889 5888 5887 5886 5885 5884 5883 5882 5881 5880 5879 5878 5877 5876 5876 5875
5901 5901 5900 5899 5899 5899 5899 5898 5897 5897 5897 5896 5895 5895 5894 5893 5893 5893 5892 5892 5892 5892 5891 5891 5890 5890 5889 5888 5887 5886 5885 5883 5882 5881 5880 5879 5878 5877 5876 5875 5874 5872 5871
5898 5898 5898 5898 5898 5897 5897 5897 5896 5896 5895 5895 5894 5894 5893 5893 5892 5892 5891 5891 5891 5890 5890 5889 5888 5888 5887 5886 5884 5883 5882 5881 5880 5879 5877 5876 5875 5874 5873 5871 5870 5869 5867
5896 5896 5896 5895 5895 5895 5895 5895 5894 5894 5894 5893 5893 5892 5892 5891 5891 5890 5890 5889 5889 5889 5888 5887 5886 5886 5885 5883 5882 5880 5879 5878 5877 5876 5874 5873 5871 5870 5869 5867 5866 5865 5863
5893 5892 5892 5893 5892 5892 5892 5892 5892 5892 5891 5891 5890 5890 5890 5889 5889 5888 5888 5887 5887 5886 5885 5885 5884 5883 5881 5880 5879 5877 5876 5875 5874 5872 5871 5870 5868 5866 5865 5863 5862 5860 5858
5890 5889 5889 5889 5889 5889 5889 5889 5889 5889 5889 5888 5888 5887 5887 5886 5886 5885 5885 5884 5884 5883 5882 5881 5880 5879 5878 5876 5875 5874 5872 5871 5870 5868 5867 5865 5864 5862 5860 5859 5857 5855 5853
5886 5886 5886 5885 5886 5886 5886 5886 5885 5885 5885 5884 5884 5884 5883 5883 5882 5882 5881 5881 5880 5879 5878 5877 5876 5875 5874 5872 5870 5869 5868 5866 5865 5864 5863 5861 5859 5857 5855 5854 5852 5850 5848
5881 5882 5882 5882 5882 5882 5882 5882 5881 5881 5881 5880 5880 5880 5879 5878 5878 5877 5877 5876 5876 5875 5874 5872 5871 5870 5869 5867 5865 5864 5863 5861 5860 5859 5858 5856 5854 5851 5849 5847 5845 5844 5841
5876 5876 5876 5877 5877 5877 5877 5877 5877 5877 5876 5876 5875 5875 5874 5873 5873 5872 5871 5871 5870 5869 5868 5867 5866 5864 5864 5862 5861 5859 5857 5856 5855 5853 5852 5850 5848 5846 5844 5842 5840 5837 5835
5870 5870 5870 5871 5871 5872 5872 5872 5872 5871 5871 5870 5870 5869 5868 5867 5866 5866 5865 5865 5864 5863 5862 5861 5859 5858 5857 5855 5854 5852 5851 5850 5848 5847 5845 5844 5842 5839 5837 5835 5833 5831 5828
5865 5865 5865 5866 5866 5866 5866 5866 5866 5866 5865 5864 5863 5862 5861 5860 5859 5859 5857 5857 5856 5856 5854 5853 5852 5851 5850 5848 5847 5845 5844 5843 5842 5840 5838 5836 5835 5833 5831 5829 5826 5824 5821
5858 5859 5859 5859 5859 5859 5859 5859 5859 5858 5858 5857 5856 5855 5854 5853 5852 5851 5850 5849 5848 5848 5847 5845 5844 5843 5842 5841 5839 5838 5836 5835 5834 5832 5830 5828 5826 5825 5823 5820 5818 5816 5813
5852 5852 5852 5853 5852 5852 5852 5851 5850 5850 5849 5849 5848 5847 5846 5845 5844 5843 5842 5841 5840 5839 5838 5837 5836 5835 5833 5832 5831 5829 5828 5826 5825 5824 5822 5820 5819 5816 5814 5812 5810 5807 5805
5844 5845 5845 5845 5845 5844 5843 5843 5842 5841 5840 5839 5839 5838 5837 5836 5835 5834 5833 5832 5831 5830 5829 5828 5827 5825 5824 5823 5822 5821 5819 5818 5816 5815 5814 5812 5810 5808 5806 5803 5801 5798 5796
5836 5836 5836 5836 5836 5835 5834 5834 5833 5831 5830 5829 5829 5828 5827 5826 5825 5825 5824 5823 5822 5820 5819 5818 5817 5816 5814 5813 5812 5811 5809 5808 5807 5805 5804 5802 5801 5799 5797 5794 5792 5789 5787
5827 5827 5827 5827 5827 5826 5826 5825 5824 5822 5821 5820 5819 5818 5817 5816 5815 5814 5813 5812 5811 5810 5809 5807 5806 5804 5803 5803 5802 5800 5799 5798 5796 5795 5794 5792 5790 5788 5787 5784 5782 5779 5777
5818 5818 5818 5818 5817 5817 5816 5815 5813 5812 5811 5809 5808 5807 5806 5805 5804 5803 5802 5801 5800 5799 5798 5797 5795 5795 5793 5792 5791 5789 5788 5787 5786 5784 5783 5782 5780 5778 5776 5774 5771 5769 5766
5809 5808 5808 5807 5807 5806 5805 5804 5803 5801 5800 5799 5797 5796 5794 5793 5792 5791 5790 5789 5789 5788 5786 5785 5784 5783 5781 5780 5779 5778 5776 5775 5774 5773 5772 5771 5769 5767 5765 5763 5760 5758 5756